• In Czech Republic
  • List of Countries
  • For 7 days
  • Water Temperature
  • Satellite Maps
  • Weather Map
  • Weather Widgets
  • user-avatar
    Login

    Hourly Weather Malanje

    Today, 23 July, Sunday

    Time Temperature Precipitation Wind Pressure Humidity
    00:00 +19°C° 0 mm 2 mps 666 mmHg 65%
    01:00 +19°C° 0 mm 2 mps 666 mmHg 70%
    02:00 +18°C° 0 mm 2 mps 665 mmHg 74%
    03:00 +18°C° 0 mm 1 mps 665 mmHg 78%
    04:00 +18°C° 0 mm 1 mps 665 mmHg 82%
    05:00 +18°C° 0 mm 1 mps 665 mmHg 83%
    06:00 +18°C° 0 mm 1 mps 666 mmHg 83%
    07:00 +18°C° 0 mm 1 mps 666 mmHg 83%
    08:00 +21°C° 0 mm 1 mps 667 mmHg 67%
    09:00 +25°C° 0 mm 1 mps 668 mmHg 52%
    10:00 +29°C° 0 mm 1 mps 669 mmHg 36%
    11:00 +31°C° 0 mm 1 mps 669 mmHg 29%
    12:00 +34°C° 0 mm 1 mps 669 mmHg 22%
    13:00 +36°C° 0 mm 1 mps 669 mmHg 17%
    14:00 +35°C° 0 mm 1 mps 668 mmHg 17%
    15:00 +35°C° 0 mm 1 mps 667 mmHg 16%
    16:00 +34°C° 0 mm 1 mps 667 mmHg 16%
    17:00 +32°C° 0 mm 1 mps 667 mmHg 20%
    18:00 +29°C° 0 mm 2 mps 666 mmHg 25%
    19:00 +27°C° 0 mm 2 mps 666 mmHg 29%
    20:00 +25°C° 0 mm 2 mps 666 mmHg 39%
    21:00 +24°C° 0 mm 3 mps 667 mmHg 48%
    22:00 +21°C° 0 mm 3 mps 667 mmHg 58%
    23:00 +20°C° 0 mm 3 mps 667 mmHg 64%

    Tomorrow, 24 July, Monday

    Time Temperature Precipitation Wind Pressure Humidity
    00:00 +19°C° 0 mm 3 mps 666 mmHg 71%
    01:00 +18°C° 0 mm 3 mps 666 mmHg 77%
    02:00 +18°C° 0 mm 3 mps 666 mmHg 80%
    03:00 +17°C° 0 mm 3 mps 666 mmHg 84%
    04:00 +17°C° 0 mm 3 mps 666 mmHg 87%
    05:00 +17°C° 0 mm 2 mps 666 mmHg 86%
    06:00 +17°C° 0 mm 2 mps 667 mmHg 85%
    07:00 +17°C° 0 mm 2 mps 667 mmHg 85%
    08:00 +20°C° 0 mm 2 mps 668 mmHg 71%
    09:00 +24°C° 0 mm 2 mps 669 mmHg 56%
    10:00 +27°C° 0 mm 2 mps 669 mmHg 42%
    11:00 +30°C° 0 mm 1 mps 669 mmHg 34%
    12:00 +33°C° 0 mm 1 mps 669 mmHg 27%
    13:00 +36°C° 0 mm 1 mps 669 mmHg 19%
    14:00 +35°C° 0 mm 1 mps 668 mmHg 18%
    15:00 +35°C° 0 mm 1 mps 668 mmHg 18%
    16:00 +34°C° 0 mm 1 mps 667 mmHg 17%
    17:00 +32°C° 0 mm 1 mps 667 mmHg 21%
    18:00 +30°C° 0 mm 2 mps 667 mmHg 24%
    19:00 +28°C° 0 mm 2 mps 667 mmHg 28%
    20:00 +26°C° 0 mm 2 mps 667 mmHg 35%
    21:00 +25°C° 0 mm 2 mps 667 mmHg 41%
    22:00 +24°C° 0 mm 2 mps 667 mmHg 48%
    23:00 +23°C° 0 mm 2 mps 667 mmHg 53%

    Day after tomorrow, 25 July, Tuesday

    Time Temperature Precipitation Wind Pressure Humidity
    00:00 +21°C° 0 mm 2 mps 667 mmHg 58%
    01:00 +20°C° 0 mm 2 mps 667 mmHg 62%
    02:00 +19°C° 0 mm 2 mps 666 mmHg 67%
    03:00 +19°C° 0 mm 2 mps 666 mmHg 71%
    04:00 +18°C° 0 mm 2 mps 666 mmHg 76%
    05:00 +18°C° 0 mm 2 mps 666 mmHg 77%
    06:00 +18°C° 0 mm 2 mps 666 mmHg 79%
    07:00 +18°C° 0 mm 1 mps 667 mmHg 80%
    08:00 +22°C° 0 mm 1 mps 668 mmHg 64%
    09:00 +25°C° 0 mm 2 mps 669 mmHg 48%
    10:00 +29°C° 0 mm 2 mps 670 mmHg 32%
    11:00 +31°C° 0 mm 2 mps 669 mmHg 25%
    12:00 +35°C° 0 mm 2 mps 669 mmHg 19%
    13:00 +37°C° 0 mm 2 mps 668 mmHg 12%
    14:00 +36°C° 0 mm 1 mps 667 mmHg 12%
    15:00 +35°C° 0 mm 1 mps 667 mmHg 11%
    16:00 +35°C° 0 mm 1 mps 666 mmHg 10%
    17:00 +33°C° 0 mm 1 mps 666 mmHg 13%
    18:00 +30°C° 0 mm 1 mps 666 mmHg 16%
    19:00 +28°C° 0 mm 2 mps 666 mmHg 19%
    20:00 +26°C° 0 mm 2 mps 666 mmHg 29%
    21:00 +25°C° 0 mm 2 mps 666 mmHg 38%
    22:00 +24°C° 0 mm 2 mps 667 mmHg 47%
    23:00 +23°C° 0 mm 2 mps 666 mmHg 53%

    26 July, Wednesday

    Time Temperature Precipitation Wind Pressure Humidity
    00:00 +21°C° 0 mm 2 mps 666 mmHg 60%
    01:00 +20°C° 0 mm 2 mps 666 mmHg 66%
    02:00 +19°C° 0 mm 2 mps 665 mmHg 70%
    03:00 +19°C° 0 mm 1 mps 665 mmHg 74%
    04:00 +18°C° 0 mm 1 mps 664 mmHg 78%
    05:00 +18°C° 0 mm 1 mps 665 mmHg 78%
    06:00 +18°C° 0 mm 1 mps 665 mmHg 78%
    07:00 +18°C° 0 mm 1 mps 666 mmHg 78%
    08:00 +22°C° 0 mm 1 mps 667 mmHg 61%
    09:00 +26°C° 0 mm 1 mps 668 mmHg 45%
    10:00 +29°C° 0 mm 2 mps 669 mmHg 28%
    11:00 +31°C° 0 mm 2 mps 668 mmHg 23%
    12:00 +34°C° 0 mm 2 mps 668 mmHg 17%
    13:00 +36°C° 0 mm 2 mps 667 mmHg 12%
    14:00 +36°C° 0 mm 2 mps 667 mmHg 12%
    15:00 +36°C° 0 mm 2 mps 666 mmHg 11%
    16:00 +36°C° 0 mm 2 mps 665 mmHg 11%
    17:00 +32°C° 0 mm 1 mps 665 mmHg 13%
    18:00 +30°C° 0 mm 1 mps 665 mmHg 15%
    19:00 +27°C° 0 mm 1 mps 665 mmHg 17%
    20:00 +26°C° 0 mm 1 mps 666 mmHg 22%
    21:00 +25°C° 0 mm 2 mps 666 mmHg 28%
    22:00 +24°C° 0 mm 2 mps 666 mmHg 33%
    23:00 +23°C° 0 mm 2 mps 666 mmHg 43%

    27 July, Thursday

    Time Temperature Precipitation Wind Pressure Humidity
    00:00 +21°C° 0 mm 2 mps 665 mmHg 52%
    01:00 +19°C° 0 mm 2 mps 665 mmHg 62%
    02:00 +19°C° 0 mm 2 mps 665 mmHg 67%
    03:00 +18°C° 0 mm 2 mps 665 mmHg 72%
    04:00 +18°C° 0 mm 1 mps 665 mmHg 77%
    05:00 +18°C° 0 mm 1 mps 665 mmHg 78%
    06:00 +18°C° 0 mm 1 mps 666 mmHg 80%
    07:00 +18°C° 0 mm 1 mps 666 mmHg 81%
    08:00 +21°C° 0 mm 1 mps 667 mmHg 65%
    09:00 +25°C° 0 mm 1 mps 668 mmHg 48%
    10:00 +29°C° 0 mm 1 mps 669 mmHg 32%
    11:00 +31°C° 0 mm 1 mps 668 mmHg 27%
    12:00 +34°C° 0 mm 1 mps 668 mmHg 22%
    13:00 +36°C° 0 mm 1 mps 668 mmHg 17%
    14:00 +35°C° 0 mm 1 mps 667 mmHg 17%
    15:00 +35°C° 0 mm 1 mps 666 mmHg 17%
    16:00 +34°C° 0 mm 1 mps 666 mmHg 17%
    17:00 +32°C° 0 mm 1 mps 666 mmHg 19%
    18:00 +30°C° 0 mm 1 mps 666 mmHg 22%
    19:00 +29°C° 0 mm 1 mps 666 mmHg 24%
    20:00 +27°C° 0 mm 2 mps 666 mmHg 29%
    21:00 +26°C° 0 mm 2 mps 666 mmHg 34%
    22:00 +25°C° 0 mm 2 mps 667 mmHg 39%
    23:00 +23°C° 0 mm 2 mps 666 mmHg 46%

    28 July, Friday

    Time Temperature Precipitation Wind Pressure Humidity
    00:00 +21°C° 0 mm 2 mps 666 mmHg 53%
    01:00 +20°C° 0 mm 2 mps 665 mmHg 61%
    02:00 +19°C° 0 mm 2 mps 665 mmHg 65%
    03:00 +18°C° 0 mm 2 mps 665 mmHg 70%
    04:00 +18°C° 0 mm 1 mps 665 mmHg 75%
    05:00 +18°C° 0 mm 1 mps 665 mmHg 75%
    06:00 +19°C° 0 mm 1 mps 666 mmHg 74%
    07:00 +19°C° 0 mm 1 mps 666 mmHg 74%
    08:00 +22°C° 0 mm 1 mps 667 mmHg 58%
    09:00 +26°C° 0 mm 2 mps 668 mmHg 43%
    10:00 +30°C° 0 mm 2 mps 669 mmHg 27%
    11:00 +31°C° 0 mm 2 mps 668 mmHg 24%
    12:00 +34°C° 0 mm 2 mps 668 mmHg 20%
    13:00 +35°C° 0 mm 3 mps 667 mmHg 17%
    14:00 +35°C° 0 mm 2 mps 667 mmHg 16%
    15:00 +35°C° 0 mm 2 mps 666 mmHg 14%
    16:00 +35°C° 0 mm 2 mps 666 mmHg 13%
    17:00 +32°C° 0 mm 2 mps 666 mmHg 15%
    18:00 +30°C° 0 mm 1 mps 666 mmHg 16%
    19:00 +28°C° 0 mm 1 mps 666 mmHg 18%
    20:00 +27°C° 0 mm 1 mps 666 mmHg 19%
    21:00 +26°C° 0 mm 1 mps 666 mmHg 21%
    22:00 +25°C° 0 mm 1 mps 667 mmHg 23%
    23:00 +24°C° 0 mm 1 mps 666 mmHg 30%
    Show more